TimeCDT,TemperatureF,Dew PointF,Humidity,Sea Level PressureIn,VisibilityMPH,Wind Direction,Wind SpeedMPH,Gust SpeedMPH,PrecipitationIn,Events,Conditions,WindDirDegrees,DateUTC
12:16 AM,54.7,46.6,74,30.27,10.0,SSW,3.5,-,N/A,,Overcast,200,2013-05-25 05:16:00
12:36 AM,53.6,47.5,80,30.27,10.0,South,3.5,-,N/A,,Overcast,190,2013-05-25 05:36:00
12:55 AM,52.9,48.2,84,30.27,10.0,South,4.6,-,N/A,,Overcast,180,2013-05-25 05:55:00
1:15 AM,52.7,48.4,85,30.26,10.0,South,3.5,-,N/A,Rain,Light Rain,170,2013-05-25 06:15:00
1:36 AM,52.7,48.6,86,30.27,10.0,South,4.6,-,0.02,,Overcast,190,2013-05-25 06:36:00
1:55 AM,52.3,49.1,89,30.26,10.0,South,6.9,-,0.02,,Overcast,180,2013-05-25 06:55:00
2:15 AM,52.3,49.1,89,30.26,10.0,South,6.9,-,N/A,,Overcast,170,2013-05-25 07:15:00
2:35 AM,52.3,49.1,89,30.25,10.0,South,4.6,-,N/A,,Overcast,180,2013-05-25 07:35:00
2:55 AM,52.2,49.1,89,30.25,10.0,South,6.9,-,N/A,,Overcast,190,2013-05-25 07:55:00
3:16 AM,52.2,49.1,89,30.24,10.0,SSE,5.8,-,N/A,,Overcast,150,2013-05-25 08:16:00
3:35 AM,52.0,48.7,89,30.24,10.0,SE,5.8,-,N/A,,Overcast,140,2013-05-25 08:35:00
3:55 AM,52.0,48.7,89,30.25,10.0,South,4.6,-,N/A,,Overcast,170,2013-05-25 08:55:00
4:16 AM,51.8,48.7,89,30.26,10.0,Calm,Calm,-,N/A,,Overcast,0,2013-05-25 09:16:00
4:35 AM,51.8,49.1,90,30.26,10.0,SE,3.5,-,N/A,,Overcast,140,2013-05-25 09:35:00
4:55 AM,51.6,49.1,91,30.27,10.0,SSE,4.6,-,N/A,,Overcast,150,2013-05-25 09:55:00
5:16 AM,51.6,49.1,91,30.28,10.0,ESE,3.5,-,N/A,,Overcast,110,2013-05-25 10:16:00
5:35 AM,51.8,49.1,90,30.27,10.0,SE,3.5,-,N/A,,Overcast,130,2013-05-25 10:35:00
5:55 AM,51.4,49.3,92,30.28,10.0,Calm,Calm,-,N/A,,Overcast,0,2013-05-25 10:55:00
6:16 AM,51.3,49.3,93,30.28,10.0,East,3.5,-,N/A,,Overcast,80,2013-05-25 11:16:00
6:35 AM,51.8,49.3,91,30.26,10.0,East,5.8,-,N/A,,Overcast,100,2013-05-25 11:35:00
6:55 AM,52.2,49.3,90,30.27,10.0,East,5.8,-,N/A,,Overcast,100,2013-05-25 11:55:00
7:16 AM,52.7,48.6,86,30.28,10.0,SE,6.9,-,N/A,,Overcast,130,2013-05-25 12:16:00
7:35 AM,52.9,48.4,85,30.27,10.0,ESE,5.8,-,N/A,,Overcast,110,2013-05-25 12:35:00
7:55 AM,53.4,48.7,84,30.27,10.0,East,5.8,-,N/A,,Overcast,100,2013-05-25 12:55:00
8:16 AM,53.8,49.3,85,30.27,10.0,East,4.6,-,N/A,,Overcast,90,2013-05-25 13:16:00
8:35 AM,54.5,49.3,83,30.27,10.0,ESE,5.8,-,N/A,,Overcast,110,2013-05-25 13:35:00
8:56 AM,55.4,49.1,79,30.27,10.0,East,6.9,-,N/A,,Overcast,90,2013-05-25 13:56:00
9:16 AM,55.6,48.7,78,30.27,10.0,ESE,9.2,-,N/A,,Overcast,120,2013-05-25 14:16:00
9:35 AM,56.3,48.0,74,30.27,10.0,ESE,11.5,-,N/A,,Overcast,120,2013-05-25 14:35:00
9:56 AM,56.7,47.7,72,30.27,10.0,ESE,10.4,-,N/A,,Overcast,120,2013-05-25 14:56:00
10:16 AM,57.6,47.8,70,30.27,10.0,ESE,8.1,-,N/A,,Overcast,120,2013-05-25 15:16:00
10:35 AM,58.5,47.5,67,30.27,10.0,SE,13.8,-,N/A,,Overcast,130,2013-05-25 15:35:00
10:56 AM,59.7,47.7,64,30.26,10.0,SE,9.2,16.1,N/A,,Overcast,140,2013-05-25 15:56:00
11:16 AM,61.0,46.8,59,30.26,10.0,SE,12.7,-,N/A,,Overcast,140,2013-05-25 16:16:00
11:35 AM,61.0,46.4,59,30.27,10.0,SE,10.4,17.3,N/A,,Overcast,130,2013-05-25 16:35:00
11:56 AM,63.1,46.9,55,30.27,10.0,SSE,15.0,-,N/A,,Mostly Cloudy,150,2013-05-25 16:56:00
12:16 PM,61.7,46.0,56,30.28,10.0,SSE,11.5,17.3,N/A,,Mostly Cloudy,160,2013-05-25 17:16:00
12:35 PM,61.9,46.6,57,30.27,10.0,ESE,8.1,16.1,N/A,,Overcast,120,2013-05-25 17:35:00
12:56 PM,63.9,46.6,53,30.27,10.0,SE,11.5,18.4,N/A,,Mostly Cloudy,130,2013-05-25 17:56:00
1:16 PM,64.6,46.2,51,30.26,10.0,SSE,15.0,21.9,N/A,,Overcast,150,2013-05-25 18:16:00
1:35 PM,63.7,45.5,52,30.26,10.0,SE,11.5,-,N/A,,Overcast,140,2013-05-25 18:35:00
1:56 PM,62.4,46.2,55,30.26,10.0,SE,12.7,19.6,N/A,,Overcast,140,2013-05-25 18:56:00
2:15 PM,62.6,47.5,58,30.26,10.0,SSE,12.7,18.4,N/A,,Overcast,150,2013-05-25 19:15:00
2:36 PM,61.9,47.1,58,30.26,10.0,ESE,12.7,18.4,N/A,,Overcast,120,2013-05-25 19:36:00
2:55 PM,61.3,47.3,60,30.26,10.0,ESE,8.1,18.4,N/A,,Overcast,120,2013-05-25 19:55:00
3:16 PM,61.7,47.7,60,30.27,10.0,SE,10.4,-,N/A,,Overcast,140,2013-05-25 20:16:00
3:35 PM,62.6,47.3,57,30.26,10.0,SE,9.2,-,N/A,,Overcast,130,2013-05-25 20:35:00
3:56 PM,62.2,46.4,56,30.26,10.0,SSE,11.5,19.6,N/A,,Overcast,150,2013-05-25 20:56:00
4:16 PM,62.2,46.2,56,30.26,10.0,SE,10.4,17.3,N/A,,Overcast,140,2013-05-25 21:16:00
4:35 PM,61.9,46.6,57,30.26,10.0,SE,10.4,19.6,N/A,,Overcast,130,2013-05-25 21:35:00
4:55 PM,62.8,46.9,56,30.26,10.0,SSE,8.1,-,N/A,,Overcast,150,2013-05-25 21:55:00
5:16 PM,61.7,46.9,58,30.26,10.0,SE,6.9,-,N/A,,Overcast,140,2013-05-25 22:16:00
5:35 PM,61.9,46.9,58,30.25,10.0,SE,9.2,-,N/A,,Overcast,140,2013-05-25 22:35:00
5:56 PM,61.7,47.1,59,30.25,10.0,ESE,11.5,-,N/A,,Mostly Cloudy,120,2013-05-25 22:56:00
6:15 PM,61.5,46.6,58,30.25,10.0,SE,8.1,-,N/A,,Overcast,130,2013-05-25 23:15:00
6:36 PM,60.8,45.9,58,30.24,10.0,SE,9.2,-,N/A,,Mostly Cloudy,140,2013-05-25 23:36:00
6:56 PM,60.8,45.9,58,30.24,10.0,SE,9.2,-,N/A,,Mostly Cloudy,140,2013-05-25 23:56:00
7:15 PM,60.1,45.7,59,30.24,10.0,SSE,9.2,-,N/A,,Mostly Cloudy,150,2013-05-26 00:15:00
7:36 PM,59.9,45.7,59,30.25,10.0,SE,9.2,-,N/A,,Overcast,140,2013-05-26 00:36:00
7:56 PM,59.9,46.2,61,30.25,10.0,SE,5.8,-,N/A,,Overcast,140,2013-05-26 00:56:00
8:15 PM,59.2,45.7,61,30.25,10.0,SE,8.1,-,N/A,,Overcast,140,2013-05-26 01:15:00
8:36 PM,57.9,44.8,62,30.24,10.0,SE,5.8,-,N/A,,Overcast,130,2013-05-26 01:36:00
8:55 PM,56.8,44.8,64,30.24,10.0,ESE,3.5,-,N/A,,Overcast,120,2013-05-26 01:55:00
9:15 PM,56.3,44.6,65,30.26,10.0,ESE,4.6,-,N/A,,Overcast,120,2013-05-26 02:15:00
9:36 PM,55.4,44.6,67,30.26,10.0,SE,4.6,-,N/A,,Overcast,130,2013-05-26 02:36:00
9:55 PM,54.9,44.2,67,30.26,10.0,ESE,3.5,-,N/A,,Overcast,110,2013-05-26 02:55:00
10:15 PM,54.9,44.1,67,30.26,10.0,ESE,4.6,-,N/A,,Overcast,110,2013-05-26 03:15:00
10:36 PM,54.7,44.1,67,30.26,10.0,Calm,Calm,-,N/A,,Overcast,0,2013-05-26 03:36:00
10:55 PM,54.5,44.2,68,30.26,10.0,SE,3.5,-,N/A,,Overcast,130,2013-05-26 03:55:00
11:15 PM,54.0,44.4,70,30.26,10.0,Calm,Calm,-,N/A,,Overcast,0,2013-05-26 04:15:00
11:36 PM,54.1,44.2,69,30.26,10.0,Calm,Calm,-,N/A,,Overcast,0,2013-05-26 04:36:00
11:55 PM,53.8,43.9,69,30.26,10.0,Calm,Calm,-,N/A,,Overcast,0,2013-05-26 04:55:00